ACA4521 KOAK-CYVR

Flight info

Callsign ACA4521
Flight time 1h 51m
Altitude 36000
Route OAK DCT DEDHD DCT RBL DCT LMT DCT SEA DCT PAE GRIZZ9
Aircraft A320/M-SDE3FGHIRWY/LB1

Departure

Time 2026-05-08 02:36
Airport San Francisco Bay Oakland International Airport (KOAK)

Arrival

Time 2026-05-08 04:27
Airport Vancouver International Airport (CYVR)
Time Latitude Longitude Altitude Speed Heading
2026-05-08 02:22 37.70926 -122.21340 9 ft 0 kts 126°
2026-05-08 02:29 37.70927 -122.21341 9 ft 1 kts 126°
2026-05-08 02:29 37.70942 -122.21365 10 ft 4 kts 133°
2026-05-08 02:29 37.70962 -122.21388 11 ft 4 kts 150°
2026-05-08 02:29 37.70985 -122.21397 10 ft 4 kts 197°
2026-05-08 02:30 37.70995 -122.21391 9 ft 1 kts 216°
2026-05-08 02:30 37.70996 -122.21390 10 ft 0 kts 216°
2026-05-08 02:32 37.70976 -122.21408 11 ft 6 kts 216°
2026-05-08 02:32 37.70941 -122.21453 9 ft 11 kts 236°
2026-05-08 02:32 37.70885 -122.21567 9 ft 17 kts 238°
2026-05-08 02:33 37.70799 -122.21673 9 ft 18 kts 219°
2026-05-08 02:33 37.70697 -122.21771 10 ft 18 kts 204°
2026-05-08 02:33 37.70590 -122.21712 9 ft 18 kts 131°
2026-05-08 02:33 37.70514 -122.21601 10 ft 16 kts 131°
2026-05-08 02:34 37.70446 -122.21502 9 ft 14 kts 131°
2026-05-08 02:34 37.70393 -122.21430 9 ft 0 kts 135°
2026-05-08 02:34 37.70391 -122.21429 9 ft 2 kts 149°
2026-05-08 02:34 37.70312 -122.21500 10 ft 21 kts 223°
2026-05-08 02:35 37.70279 -122.21619 9 ft 16 kts 302°
2026-05-08 02:35 37.70457 -122.21899 9 ft 79 kts 306°
2026-05-08 02:35 37.70966 -122.22672 9 ft 149 kts 310°
2026-05-08 02:35 37.71734 -122.23785 297 ft 189 kts 310°
2026-05-08 02:36 37.72715 -122.25111 805 ft 223 kts 311°
2026-05-08 02:36 37.73817 -122.26604 1349 ft 242 kts 306°
2026-05-08 02:36 37.74751 -122.28421 1746 ft 248 kts 298°
2026-05-08 02:36 37.75575 -122.30346 2125 ft 249 kts 296°
2026-05-08 02:37 37.76393 -122.32282 2502 ft 250 kts 297°
2026-05-08 02:37 37.77246 -122.34204 2870 ft 251 kts 299°
2026-05-08 02:37 37.78137 -122.36112 3242 ft 252 kts 302°
2026-05-08 02:37 37.79306 -122.37757 3597 ft 256 kts 324°
2026-05-08 02:38 37.80955 -122.38634 3965 ft 263 kts 349°
2026-05-08 02:38 37.82789 -122.38455 4341 ft 271 kts 17°
2026-05-08 02:38 37.84544 -122.37554 4719 ft 274 kts 20°
2026-05-08 02:38 37.86310 -122.36605 5088 ft 277 kts 21°
2026-05-08 02:39 37.88086 -122.35649 5449 ft 279 kts 21°
2026-05-08 02:39 37.89880 -122.34685 5827 ft 280 kts 21°
2026-05-08 02:39 37.91664 -122.33733 6190 ft 283 kts 20°
2026-05-08 02:39 37.93485 -122.32760 6551 ft 285 kts 21°
2026-05-08 02:40 37.95319 -122.31778 6891 ft 287 kts 21°
2026-05-08 02:40 37.97165 -122.30797 7220 ft 289 kts 20°
2026-05-08 02:40 37.99027 -122.29809 7579 ft 291 kts 20°
2026-05-08 02:40 38.00899 -122.28809 7936 ft 293 kts 20°
2026-05-08 02:41 38.02780 -122.27802 8303 ft 294 kts 20°
2026-05-08 02:41 38.04672 -122.26789 8681 ft 296 kts 20°
2026-05-08 02:41 38.06575 -122.25769 9053 ft 298 kts 20°
2026-05-08 02:41 38.08479 -122.24749 9427 ft 299 kts 20°
2026-05-08 02:42 38.10403 -122.23719 9826 ft 302 kts 20°
2026-05-08 02:42 38.12357 -122.22672 10190 ft 309 kts 20°
2026-05-08 02:42 38.14398 -122.21579 10547 ft 327 kts 21°
2026-05-08 02:42 38.16546 -122.20429 10908 ft 343 kts 21°
2026-05-08 02:43 38.18774 -122.19235 11263 ft 351 kts 20°
2026-05-08 02:43 38.21038 -122.18020 11623 ft 354 kts 21°
2026-05-08 02:43 38.23317 -122.16792 11990 ft 357 kts 21°
2026-05-08 02:43 38.25607 -122.15559 12358 ft 359 kts 21°
2026-05-08 02:44 38.27912 -122.14320 12724 ft 360 kts 21°
2026-05-08 02:44 38.30230 -122.13075 13105 ft 362 kts 21°
2026-05-08 02:44 38.32602 -122.11983 13446 ft 363 kts 12°
2026-05-08 02:44 38.35091 -122.11481 13826 ft 363 kts
2026-05-08 02:45 38.37610 -122.11557 14179 ft 363 kts 354°
2026-05-08 02:45 38.40137 -122.11740 14527 ft 364 kts 354°
2026-05-08 02:45 38.42637 -122.11913 14873 ft 366 kts 354°
2026-05-08 02:45 38.45180 -122.12086 15228 ft 367 kts 355°
2026-05-08 02:46 38.47737 -122.12261 15587 ft 369 kts 355°
2026-05-08 02:46 38.50303 -122.12436 15949 ft 370 kts 355°
2026-05-08 02:46 38.52882 -122.12612 16324 ft 372 kts 355°
2026-05-08 02:46 38.55474 -122.12790 16701 ft 374 kts 355°
2026-05-08 02:47 38.58079 -122.12971 17076 ft 375 kts 355°
2026-05-08 02:47 38.60685 -122.13150 17454 ft 377 kts 355°
2026-05-08 02:47 38.63314 -122.13329 17835 ft 379 kts 355°
2026-05-08 02:47 38.65954 -122.13509 18228 ft 381 kts 355°
2026-05-08 02:48 38.68611 -122.13692 18578 ft 384 kts 355°
2026-05-08 02:48 38.71286 -122.13875 18922 ft 385 kts 355°
2026-05-08 02:48 38.73968 -122.14057 19268 ft 387 kts 355°
2026-05-08 02:48 38.76666 -122.14242 19620 ft 389 kts 355°
2026-05-08 02:49 38.79381 -122.14430 19976 ft 391 kts 355°
2026-05-08 02:49 38.82074 -122.14616 20333 ft 394 kts 355°
2026-05-08 02:49 38.84815 -122.14808 20698 ft 396 kts 355°
2026-05-08 02:49 38.87573 -122.15003 21066 ft 398 kts 355°
2026-05-08 02:50 38.90341 -122.15198 21439 ft 400 kts 355°
2026-05-08 02:50 38.93132 -122.15396 21825 ft 402 kts 355°
2026-05-08 02:50 38.95936 -122.15593 22207 ft 405 kts 355°
2026-05-08 02:50 38.98754 -122.15788 22595 ft 407 kts 355°
2026-05-08 02:51 39.01597 -122.15985 22997 ft 410 kts 355°
2026-05-08 02:51 39.04453 -122.16178 23395 ft 413 kts 355°
2026-05-08 02:51 39.07332 -122.16373 23761 ft 415 kts 355°
2026-05-08 02:51 39.10222 -122.16574 24093 ft 417 kts 355°
2026-05-08 02:52 39.13126 -122.16778 24435 ft 419 kts 355°
2026-05-08 02:52 39.16045 -122.16984 24781 ft 420 kts 355°
2026-05-08 02:52 39.18971 -122.17191 25124 ft 422 kts 355°
2026-05-08 02:52 39.21909 -122.17396 25485 ft 424 kts 355°
2026-05-08 02:53 39.24829 -122.17598 25837 ft 426 kts 355°
2026-05-08 02:53 39.27797 -122.17805 26194 ft 428 kts 355°
2026-05-08 02:53 39.30773 -122.18015 26566 ft 430 kts 355°
2026-05-08 02:53 39.33763 -122.18227 26940 ft 431 kts 355°
2026-05-08 02:54 39.36768 -122.18439 27314 ft 432 kts 355°
2026-05-08 02:54 39.39774 -122.18650 27696 ft 433 kts 355°
2026-05-08 02:54 39.42784 -122.18860 28088 ft 434 kts 355°
2026-05-08 02:54 39.45801 -122.19070 28479 ft 434 kts 355°
2026-05-08 02:55 39.48822 -122.19280 28885 ft 435 kts 355°
2026-05-08 02:55 39.54861 -122.19707 29701 ft 435 kts 355°
2026-05-08 02:55 39.57879 -122.19921 30109 ft 434 kts 355°
2026-05-08 02:56 39.60895 -122.20133 30459 ft 434 kts 355°
2026-05-08 02:56 39.63904 -122.20348 30828 ft 433 kts 355°
2026-05-08 02:56 39.66915 -122.20567 31191 ft 432 kts 355°
2026-05-08 02:56 39.69916 -122.20785 31553 ft 432 kts 355°
2026-05-08 02:57 39.72876 -122.20997 31924 ft 431 kts 355°
2026-05-08 02:57 39.75864 -122.21211 32302 ft 430 kts 355°
2026-05-08 02:57 39.78851 -122.21421 32687 ft 428 kts 355°
2026-05-08 02:57 39.81819 -122.21628 33076 ft 427 kts 355°
2026-05-08 02:58 39.84785 -122.21835 33471 ft 425 kts 355°
2026-05-08 02:58 39.87731 -122.22040 33877 ft 423 kts 355°
2026-05-08 02:58 39.90661 -122.22245 34242 ft 421 kts 355°
2026-05-08 02:58 39.93572 -122.22452 34601 ft 418 kts 355°
2026-05-08 02:59 39.96464 -122.22661 34958 ft 414 kts 355°
2026-05-08 02:59 39.99329 -122.22866 35320 ft 411 kts 355°
2026-05-08 02:59 40.02172 -122.23068 35690 ft 407 kts 355°
2026-05-08 02:59 40.05002 -122.23272 35852 ft 409 kts 355°
2026-05-08 03:00 40.07859 -122.23480 35900 ft 414 kts 356°
2026-05-08 03:00 40.13691 -122.22746 35901 ft 428 kts
2026-05-08 03:01 40.19582 -122.21304 35901 ft 438 kts
2026-05-08 03:01 40.25608 -122.19847 35896 ft 441 kts
2026-05-08 03:02 40.31651 -122.18392 35892 ft 442 kts
2026-05-08 03:02 40.37702 -122.16931 35890 ft 442 kts
2026-05-08 03:03 40.43761 -122.15469 35885 ft 443 kts
2026-05-08 03:03 40.49823 -122.14003 35889 ft 443 kts
2026-05-08 03:04 40.55879 -122.12538 35893 ft 443 kts
2026-05-08 03:04 40.61939 -122.11056 35898 ft 443 kts
2026-05-08 03:05 40.67996 -122.09568 35981 ft 442 kts
2026-05-08 03:05 40.74072 -122.08081 36049 ft 445 kts
2026-05-08 03:06 40.79128 -122.06844 36069 ft 444 kts
2026-05-08 03:06 40.85207 -122.05364 36077 ft 444 kts
2026-05-08 03:07 40.91273 -122.03879 36087 ft 443 kts
2026-05-08 03:07 40.97329 -122.02382 36088 ft 442 kts
2026-05-08 03:08 41.03378 -122.00882 36088 ft 442 kts
2026-05-08 03:08 41.09422 -121.99381 36098 ft 442 kts
2026-05-08 03:09 41.15431 -121.97892 36110 ft 442 kts
2026-05-08 03:09 41.21472 -121.96400 36103 ft 441 kts
2026-05-08 03:10 41.27508 -121.94904 36109 ft 441 kts
2026-05-08 03:10 41.33539 -121.93405 36113 ft 441 kts
2026-05-08 03:11 41.39277 -121.91980 36112 ft 441 kts
2026-05-08 03:11 41.45317 -121.90466 36114 ft 441 kts
2026-05-08 03:12 41.51351 -121.88952 36116 ft 441 kts
2026-05-08 03:12 41.57396 -121.87432 36115 ft 441 kts
2026-05-08 03:13 41.63385 -121.85930 36110 ft 441 kts
2026-05-08 03:13 41.69416 -121.84421 36102 ft 441 kts
2026-05-08 03:14 41.75442 -121.82898 36096 ft 440 kts
2026-05-08 03:14 41.81457 -121.81372 36086 ft 440 kts
2026-05-08 03:15 41.87472 -121.79849 36090 ft 440 kts
2026-05-08 03:15 41.93494 -121.78327 36104 ft 440 kts
2026-05-08 03:16 41.99508 -121.76795 36107 ft 440 kts
2026-05-08 03:16 42.05520 -121.75261 36117 ft 440 kts
2026-05-08 03:17 42.11540 -121.73724 36122 ft 440 kts
2026-05-08 03:17 42.17593 -121.72965 36121 ft 435 kts 353°
2026-05-08 03:18 42.23582 -121.73575 36076 ft 434 kts 353°
2026-05-08 03:18 42.29614 -121.74191 36082 ft 434 kts 353°
2026-05-08 03:19 42.35641 -121.74808 36080 ft 434 kts 353°
2026-05-08 03:19 42.41665 -121.75421 36079 ft 434 kts 353°
2026-05-08 03:20 42.47684 -121.76033 36080 ft 434 kts 353°
2026-05-08 03:20 42.53709 -121.76641 36080 ft 434 kts 353°
2026-05-08 03:21 42.59691 -121.77245 36091 ft 434 kts 353°
2026-05-08 03:21 42.65726 -121.77861 36086 ft 433 kts 353°
2026-05-08 03:22 42.71741 -121.78490 36085 ft 433 kts 352°
2026-05-08 03:22 42.77758 -121.79112 36086 ft 434 kts 352°
2026-05-08 03:23 42.83773 -121.79732 36085 ft 434 kts 352°
2026-05-08 03:23 42.89794 -121.80348 36084 ft 434 kts 352°
2026-05-08 03:24 42.95816 -121.80966 36098 ft 434 kts 352°
2026-05-08 03:24 43.01789 -121.81584 36089 ft 433 kts 352°
2026-05-08 03:25 43.07803 -121.82205 36088 ft 433 kts 352°
2026-05-08 03:25 43.13804 -121.82831 36085 ft 432 kts 352°
2026-05-08 03:26 43.19804 -121.83458 36083 ft 432 kts 352°
2026-05-08 03:26 43.25801 -121.84080 36076 ft 432 kts 352°
2026-05-08 03:27 43.31796 -121.84701 36081 ft 432 kts 352°
2026-05-08 03:27 43.37803 -121.85329 36095 ft 432 kts 352°
2026-05-08 03:28 43.43806 -121.85954 36095 ft 432 kts 352°
2026-05-08 03:28 43.49795 -121.86588 36095 ft 432 kts 352°
2026-05-08 03:29 43.55784 -121.87218 36102 ft 431 kts 352°
2026-05-08 03:29 43.61765 -121.87847 36094 ft 431 kts 352°
2026-05-08 03:30 43.70683 -121.88790 36101 ft 430 kts 352°
2026-05-08 03:31 43.82611 -121.90050 36110 ft 429 kts 351°
2026-05-08 03:32 43.91549 -121.91010 36105 ft 429 kts 351°
2026-05-08 03:32 43.97510 -121.91645 36113 ft 429 kts 352°
2026-05-08 03:33 44.03468 -121.92285 36109 ft 429 kts 352°
2026-05-08 03:33 44.09383 -121.92921 36116 ft 429 kts 352°
2026-05-08 03:34 44.15327 -121.93570 36118 ft 428 kts 352°
2026-05-08 03:34 44.21273 -121.94206 36102 ft 428 kts 352°
2026-05-08 03:35 44.27214 -121.94832 36104 ft 428 kts 352°
2026-05-08 03:35 44.33149 -121.95481 36102 ft 427 kts 352°
2026-05-08 03:36 44.39076 -121.96122 36101 ft 427 kts 352°
2026-05-08 03:36 44.44963 -121.96759 36098 ft 427 kts 352°
2026-05-08 03:37 44.50482 -121.97354 36100 ft 426 kts 352°
2026-05-08 03:37 44.56400 -121.98000 36097 ft 427 kts 352°
2026-05-08 03:38 44.62327 -121.98643 36105 ft 426 kts 352°
2026-05-08 03:38 44.68245 -121.99290 36100 ft 427 kts 352°
2026-05-08 03:39 44.74126 -121.99938 36106 ft 427 kts 352°
2026-05-08 03:39 44.80049 -122.00584 36105 ft 426 kts 352°
2026-05-08 03:40 44.85962 -122.01229 36106 ft 426 kts 352°
2026-05-08 03:40 44.91867 -122.01884 36107 ft 425 kts 352°
2026-05-08 03:41 44.97766 -122.02543 36105 ft 425 kts 352°
2026-05-08 03:41 45.03664 -122.03203 36109 ft 425 kts 352°
2026-05-08 03:42 45.09219 -122.03811 36105 ft 425 kts 351°
2026-05-08 03:42 45.15075 -122.04463 36099 ft 425 kts 351°
2026-05-08 03:43 45.20971 -122.05126 36099 ft 425 kts 351°
2026-05-08 03:43 45.26867 -122.05786 36101 ft 425 kts 351°
2026-05-08 03:44 45.32765 -122.06432 36095 ft 426 kts 351°
2026-05-08 03:44 45.38677 -122.07092 36094 ft 426 kts 351°
2026-05-08 03:45 45.44581 -122.07757 36088 ft 426 kts 351°
2026-05-08 03:45 45.50494 -122.08422 36088 ft 426 kts 351°
2026-05-08 03:46 45.56406 -122.09093 36088 ft 427 kts 351°
2026-05-08 03:46 45.62339 -122.09761 36099 ft 427 kts 351°
2026-05-08 03:47 45.68218 -122.10427 36104 ft 426 kts 351°
2026-05-08 03:47 45.74129 -122.11102 36105 ft 426 kts 351°
2026-05-08 03:48 45.80045 -122.11786 36099 ft 426 kts 351°
2026-05-08 03:48 45.85955 -122.12468 36093 ft 426 kts 351°
2026-05-08 03:49 45.91864 -122.13132 36094 ft 426 kts 351°
2026-05-08 03:49 45.97782 -122.13797 36090 ft 426 kts 351°
2026-05-08 03:50 46.03693 -122.14475 36097 ft 426 kts 351°
2026-05-08 03:50 46.09605 -122.15156 36104 ft 426 kts 351°
2026-05-08 03:51 46.15518 -122.15844 36110 ft 426 kts 351°
2026-05-08 03:51 46.21424 -122.16526 36099 ft 425 kts 351°
2026-05-08 03:52 46.27331 -122.17206 36093 ft 426 kts 351°
2026-05-08 03:52 46.33204 -122.17882 36100 ft 426 kts 351°
2026-05-08 03:53 46.39118 -122.18565 36097 ft 426 kts 351°
2026-05-08 03:53 46.45027 -122.19265 36107 ft 425 kts 351°
2026-05-08 03:54 46.50917 -122.19949 36112 ft 424 kts 351°
2026-05-08 03:54 46.56801 -122.20626 36116 ft 424 kts 351°
2026-05-08 03:55 46.62680 -122.21310 36124 ft 424 kts 351°
2026-05-08 03:55 46.68567 -122.22007 36113 ft 424 kts 350°
2026-05-08 03:56 46.74451 -122.22712 36110 ft 424 kts 350°
2026-05-08 03:56 46.80306 -122.23405 36111 ft 425 kts 351°
2026-05-08 03:57 46.86202 -122.24096 36127 ft 425 kts 350°
2026-05-08 03:57 46.92094 -122.24789 36127 ft 425 kts 350°
2026-05-08 03:58 46.97979 -122.25501 36125 ft 424 kts 350°
2026-05-08 03:58 47.03862 -122.26215 36124 ft 424 kts 350°
2026-05-08 03:59 47.09741 -122.26920 36124 ft 424 kts 350°
2026-05-08 03:59 47.15627 -122.27620 36103 ft 424 kts 350°
2026-05-08 04:00 47.21514 -122.28315 36098 ft 425 kts 350°
2026-05-08 04:00 47.27413 -122.29014 36118 ft 425 kts 350°
2026-05-08 04:01 47.33306 -122.29724 36143 ft 425 kts 349°
2026-05-08 04:01 47.36247 -122.30082 36031 ft 424 kts 349°
2026-05-08 04:01 47.39184 -122.30439 35611 ft 419 kts 349°
2026-05-08 04:01 47.42027 -122.30779 35178 ft 414 kts 349°
2026-05-08 04:02 47.44937 -122.30881 34456 ft 422 kts 357°
2026-05-08 04:02 47.47859 -122.30666 33969 ft 419 kts 357°
2026-05-08 04:02 47.50762 -122.30472 33406 ft 416 kts 356°
2026-05-08 04:02 47.53641 -122.30291 32886 ft 413 kts 357°
2026-05-08 04:03 47.56502 -122.30116 32367 ft 411 kts 357°
2026-05-08 04:03 47.61997 -122.29767 31380 ft 407 kts 357°
2026-05-08 04:03 47.64824 -122.29581 30879 ft 405 kts 358°
2026-05-08 04:04 47.67636 -122.29396 30390 ft 404 kts 358°
2026-05-08 04:04 47.70442 -122.29212 29833 ft 402 kts 358°
2026-05-08 04:04 47.73228 -122.29028 29340 ft 399 kts 358°
2026-05-08 04:04 47.75982 -122.28847 28865 ft 395 kts 358°
2026-05-08 04:05 47.78718 -122.28666 28405 ft 392 kts 358°
2026-05-08 04:05 47.81432 -122.28482 27953 ft 389 kts 358°
2026-05-08 04:05 47.84130 -122.28297 27506 ft 386 kts 358°
2026-05-08 04:05 47.86772 -122.28116 27066 ft 383 kts 358°
2026-05-08 04:06 47.89423 -122.27939 26647 ft 380 kts 358°
2026-05-08 04:06 47.92041 -122.27941 26227 ft 373 kts 350°
2026-05-08 04:06 47.94582 -122.28523 25811 ft 366 kts 344°
2026-05-08 04:06 47.97074 -122.29256 25396 ft 364 kts 345°
2026-05-08 04:07 47.99550 -122.29976 24982 ft 361 kts 345°
2026-05-08 04:07 48.02011 -122.30689 24553 ft 359 kts 345°
2026-05-08 04:07 48.04464 -122.31399 24048 ft 360 kts 345°
2026-05-08 04:07 48.06920 -122.32106 23594 ft 359 kts 345°
2026-05-08 04:08 48.09366 -122.32810 23130 ft 357 kts 345°
2026-05-08 04:08 48.11796 -122.33514 22684 ft 354 kts 345°
2026-05-08 04:08 48.14205 -122.34215 22249 ft 352 kts 345°
2026-05-08 04:08 48.16600 -122.34914 21819 ft 350 kts 345°
2026-05-08 04:09 48.18987 -122.35610 21393 ft 348 kts 345°
2026-05-08 04:09 48.21364 -122.36303 20964 ft 347 kts 346°
2026-05-08 04:09 48.23729 -122.36989 20541 ft 346 kts 346°
2026-05-08 04:09 48.26086 -122.37673 20116 ft 345 kts 346°
2026-05-08 04:10 48.28412 -122.38352 19696 ft 345 kts 346°
2026-05-08 04:10 48.30765 -122.39040 19268 ft 344 kts 346°
2026-05-08 04:10 48.33118 -122.39729 18851 ft 344 kts 346°
2026-05-08 04:10 48.35470 -122.40415 18434 ft 345 kts 346°
2026-05-08 04:11 48.37823 -122.41100 17970 ft 344 kts 347°
2026-05-08 04:11 48.40174 -122.41784 17553 ft 342 kts 347°
2026-05-08 04:11 48.42463 -122.42450 17149 ft 329 kts 347°
2026-05-08 04:11 48.44670 -122.43096 16767 ft 317 kts 347°
2026-05-08 04:12 48.46800 -122.43724 16394 ft 307 kts 347°
2026-05-08 04:12 48.48864 -122.44333 16037 ft 297 kts 347°
2026-05-08 04:12 48.50861 -122.44923 15691 ft 288 kts 347°
2026-05-08 04:12 48.52800 -122.45495 15354 ft 280 kts 347°
2026-05-08 04:13 48.54699 -122.46056 15017 ft 276 kts 347°
2026-05-08 04:13 48.56579 -122.46615 14681 ft 274 kts 347°
2026-05-08 04:13 48.58444 -122.47170 14356 ft 274 kts 347°
2026-05-08 04:13 48.60320 -122.47728 14019 ft 276 kts 347°
2026-05-08 04:14 48.62206 -122.48333 13653 ft 276 kts 340°
2026-05-08 04:14 48.63942 -122.49459 13542 ft 269 kts 334°
2026-05-08 04:14 48.65637 -122.50615 13476 ft 267 kts 334°
2026-05-08 04:14 48.67335 -122.51759 13412 ft 267 kts 334°
2026-05-08 04:15 48.69030 -122.52900 13347 ft 266 kts 334°
2026-05-08 04:15 48.70722 -122.54044 13288 ft 266 kts 334°
2026-05-08 04:15 48.72391 -122.55178 13204 ft 267 kts 334°
2026-05-08 04:15 48.74150 -122.56375 12334 ft 281 kts 334°
2026-05-08 04:16 48.75946 -122.57598 11680 ft 289 kts 334°
2026-05-08 04:16 48.77769 -122.58840 11433 ft 285 kts 335°
2026-05-08 04:16 48.79563 -122.60061 11188 ft 281 kts 335°
2026-05-08 04:16 48.81334 -122.61271 10945 ft 276 kts 335°
2026-05-08 04:17 48.83074 -122.62462 10703 ft 272 kts 335°
2026-05-08 04:17 48.84789 -122.63635 10464 ft 268 kts 335°
2026-05-08 04:17 48.86477 -122.64793 10227 ft 264 kts 335°
2026-05-08 04:17 48.88140 -122.65935 9990 ft 260 kts 335°
2026-05-08 04:18 48.89769 -122.67054 9765 ft 255 kts 335°
2026-05-08 04:18 48.91383 -122.68164 9421 ft 255 kts 335°
2026-05-08 04:18 48.92996 -122.69273 9072 ft 254 kts 335°
2026-05-08 04:18 48.94609 -122.70380 8709 ft 255 kts 335°
2026-05-08 04:19 48.96228 -122.71493 8354 ft 255 kts 335°
2026-05-08 04:19 48.97846 -122.72609 7994 ft 255 kts 335°
2026-05-08 04:19 48.99467 -122.73727 7633 ft 256 kts 335°
2026-05-08 04:19 49.01100 -122.74808 7271 ft 256 kts 342°
2026-05-08 04:20 49.02832 -122.75087 7041 ft 250 kts
2026-05-08 04:20 49.04532 -122.74913 6917 ft 241 kts
2026-05-08 04:20 49.06169 -122.74699 6789 ft 231 kts
2026-05-08 04:20 49.07750 -122.74487 6603 ft 226 kts
2026-05-08 04:21 49.09286 -122.74283 6450 ft 219 kts
2026-05-08 04:21 49.10790 -122.74391 6191 ft 215 kts 341°
2026-05-08 04:21 49.12024 -122.75579 5902 ft 210 kts 312°
2026-05-08 04:21 49.12966 -122.77280 5484 ft 210 kts 306°
2026-05-08 04:22 49.13843 -122.79053 5245 ft 208 kts 306°
2026-05-08 04:22 49.14699 -122.80823 4997 ft 206 kts 305°
2026-05-08 04:22 49.15548 -122.82588 4671 ft 208 kts 306°
2026-05-08 04:22 49.16359 -122.84528 3987 ft 226 kts 289°
2026-05-08 04:23 49.16603 -122.86087 3734 ft 227 kts 279°
2026-05-08 04:23 49.16863 -122.88413 3604 ft 218 kts 279°
2026-05-08 04:23 49.17121 -122.90660 3372 ft 215 kts 279°
2026-05-08 04:23 49.17383 -122.92908 3068 ft 214 kts 279°
2026-05-08 04:24 49.17643 -122.95143 2779 ft 214 kts 279°
2026-05-08 04:24 49.17903 -122.97377 2480 ft 213 kts 278°
2026-05-08 04:24 49.18157 -122.99557 2210 ft 202 kts 278°
2026-05-08 04:24 49.18394 -123.01601 1926 ft 187 kts 278°
2026-05-08 04:25 49.18612 -123.03475 1680 ft 171 kts 277°
2026-05-08 04:25 49.18811 -123.05203 1456 ft 159 kts 278°
2026-05-08 04:25 49.18997 -123.06816 1240 ft 149 kts 277°
2026-05-08 04:25 49.19175 -123.08362 1044 ft 146 kts 277°
2026-05-08 04:26 49.19350 -123.09879 844 ft 144 kts 278°
2026-05-08 04:26 49.19523 -123.11388 657 ft 144 kts 278°
2026-05-08 04:26 49.19697 -123.12900 460 ft 144 kts 278°
2026-05-08 04:26 49.19870 -123.14410 272 ft 145 kts 278°
2026-05-08 04:27 49.20041 -123.15898 115 ft 143 kts 278°
2026-05-08 04:27 49.20194 -123.17334 22 ft 102 kts 278°
2026-05-08 04:27 49.20214 -123.17773 22 ft 15 kts 228°
2026-05-08 04:27 49.20155 -123.17868 24 ft 11 kts 249°
2026-05-08 04:28 49.20150 -123.17887 23 ft 6 kts 249°
2026-05-08 04:28 49.20135 -123.17949 23 ft 6 kts 251°
2026-05-08 04:28 49.20115 -123.18046 23 ft 1 kts 251°
2026-05-08 04:30 49.20114 -123.18047 23 ft 1 kts 251°
2026-05-08 04:31 49.20091 -123.18155 23 ft 20 kts 252°
2026-05-08 04:31 49.20111 -123.18400 23 ft 23 kts 277°
2026-05-08 04:31 49.20047 -123.18520 24 ft 20 kts 205°
2026-05-08 04:31 49.19898 -123.18560 23 ft 22 kts 189°
2026-05-08 04:32 49.19774 -123.18498 23 ft 21 kts 110°
2026-05-08 04:32 49.19746 -123.18278 23 ft 17 kts 100°
2026-05-08 04:32 49.19744 -123.18262 23 ft 0 kts 100°
2026-05-08 04:32 49.19744 -123.18260 23 ft 2 kts 100°
2026-05-08 04:33 49.19723 -123.18167 23 ft 13 kts 122°
2026-05-08 04:33 49.19661 -123.18068 25 ft 13 kts 134°
2026-05-08 04:33 49.19634 -123.17986 23 ft 5 kts 112°
2026-05-08 04:33 49.19622 -123.17961 23 ft 2 kts 131°
2026-05-08 04:34 49.19610 -123.17938 23 ft 3 kts 131°
2026-05-08 04:34 49.19598 -123.17922 24 ft 0 kts 140°